Weather History for KPUW - August, 2014

Change the Weather History Date:

Thursday, August 28, 2014

  Actual Average Record
Temperature  
Mean Temperature 68 °F 64 °F  
Max Temperature 83 °F 80 °F 100 °F (2009)
Min Temperature 53 °F 47 °F 36 °F (2007)
Degree Days  
Heating Degree Days 0 4  
Month to date heating degree days 7 55  
Since 1 June heating degree days 221 325  
Since 1 July heating degree days 17 119  
Cooling Degree Days 3 2  
Month to date cooling degree days 134 85  
Year to date cooling degree days 325 185  
Since 1 June cooling degree days 324 180  
Growing Degree Days 18 (Base 50)    
Moisture  
Dew Point 45 °F    
Average Humidity 39    
Maximum Humidity 55    
Minimum Humidity 23    
Precipitation  
Precipitation 0.00 in 0.02 in 0.38 in (1975)
Month to date precipitation 0.50 0.57  
Year to date precipitation 11.44 10.85  
Sea Level Pressure  
Sea Level Pressure 29.98 in    
Wind  
Wind Speed 10 mph (WSW)    
Max Wind Speed 22 mph    
Max Gust Speed 28 mph    
Visibility 10 miles    
Events      
T = Trace of Precipitation, MM = Missing Value Source: NWS Daily Summary

Daily Weather History Graph

Daily Weather History Graph

Search for Another Location

Airport or City:

Trip Planner

Search our weather history database for the weather conditions in past years. The results will help you decide how hot, cold, wet, or windy it might be!

Date:

Astronomy

Aug. 28, 2014 Rise Set
Actual Time 6:03 AM PDT 7:35 PM PDT
Civil Twilight 5:31 AM PDT 8:06 PM PDT
Nautical Twilight 4:52 AM PDT 8:45 PM PDT
Astronomical Twilight 4:11 AM PDT 9:26 PM PDT
Moon 9:13 AM PDT (8/28) 8:46 PM PDT (8/28)
Length of Visible Light 14h 35m
Length of Day
13h 32m
Waxing Crescent, 9% of the Moon is Illuminated
Aug 28
Waxing Crescent
Sep 2
First Quarter
Sep 8
Full
Sep 15
Last Quarter
Sep 23
New

Hourly Weather History & Observations

Time (PDT) Temp. Dew Point Humidity Pressure Visibility Wind Dir Wind Speed Gust Speed Precip Events Conditions
12:53 AM 62.1 °F 45.0 °F 53% 29.95 in 10.0 mi Calm Calm - N/A   Clear
1:53 AM 64.9 °F 46.0 °F 50% 29.96 in 10.0 mi West 3.5 mph - N/A   Clear
2:53 AM 71.1 °F 50.0 °F 47% 29.96 in 10.0 mi WSW 15.0 mph - N/A   Clear
3:53 AM 69.1 °F 51.1 °F 53% 29.97 in 10.0 mi WSW 16.1 mph - N/A   Clear
4:53 AM 68.0 °F 51.1 °F 55% 29.98 in 10.0 mi WSW 8.1 mph - N/A   Clear
5:53 AM 68.0 °F 52.0 °F 56% 29.99 in 10.0 mi WSW 13.8 mph 21.9 mph N/A   Clear
6:53 AM 68.0 °F 52.0 °F 56% 30.00 in 10.0 mi WSW 11.5 mph - N/A   Clear
8:53 AM 73.0 °F 51.1 °F 46% 30.02 in 10.0 mi WSW 18.4 mph 24.2 mph N/A   Clear
9:53 AM 75.9 °F 51.1 °F 42% 30.03 in 10.0 mi WSW 13.8 mph 24.2 mph N/A   Clear
10:53 AM 77.0 °F 50.0 °F 39% 30.03 in 10.0 mi WSW 20.7 mph 27.6 mph N/A   Clear
11:53 AM 80.1 °F 48.9 °F 34% 30.02 in 10.0 mi WSW 16.1 mph - N/A   Clear
12:53 PM 82.0 °F 48.0 °F 30% 30.00 in 10.0 mi West 16.1 mph 21.9 mph N/A   Clear
1:53 PM 80.1 °F 45.0 °F 29% 29.99 in 10.0 mi West 13.8 mph 24.2 mph N/A   Clear
2:53 PM 79.0 °F 41.0 °F 26% 29.98 in 10.0 mi West 18.4 mph 25.3 mph N/A   Clear
3:53 PM 80.1 °F 41.0 °F 25% 29.97 in 10.0 mi West 11.5 mph 19.6 mph N/A   Clear
4:53 PM 81.0 °F 43.0 °F 26% 29.96 in 10.0 mi West 11.5 mph 19.6 mph N/A   Clear
5:53 PM 79.0 °F 37.9 °F 23% 29.95 in 10.0 mi West 13.8 mph 21.9 mph N/A   Clear
6:53 PM 77.0 °F 42.1 °F 29% 29.95 in 10.0 mi West 9.2 mph - N/A   Clear
7:53 PM 71.1 °F 39.0 °F 31% 29.96 in 10.0 mi West 5.8 mph - N/A   Clear
8:53 PM 61.0 °F 37.9 °F 42% 29.98 in 8.0 mi Calm Calm - 0.00 in   Clear
9:53 PM 60.1 °F 39.0 °F 46% 29.98 in 10.0 mi Calm Calm - N/A   Clear
10:53 PM 55.9 °F 39.0 °F 53% 29.98 in 10.0 mi Calm Calm - N/A   Clear
11:53 PM 57.9 °F 41.0 °F 53% 29.97 in 10.0 mi Calm Calm - N/A   Clear